CZ-4C DEB, 40113

Orbit data source: Space-Track

CZ-4C DEB, 40113 is space debris in LEO originally from a launch on Sat, 09 Aug 2014 UTC launched from the Jiuquan Satellite Launch Center, China (JSC). Debris objects in space refer to the collection of defunct objects orbiting the Earth. Examples of debris include non-operational satellites, rocket bodies, and fragments generated from explosions, collisions, or faulty payload assembly.

Loading next visibility...
CZ-4C DEB details
Identifier
40113, 2014-047E
Orbit
LEO
Last TLE update12 hours ago
Origin
Flag of CNPLA GAD (CN / PRC)
ManufacturerCAST
MissionSpacecraft
Bus & MotorUnknown
MassUnknown
Launch date (UTC)
2014-08-09 (10 years ago)
Launch vehicleUnknown
Launch site
Jiuquan Satellite Launch Center, China (JSC)
Object type
Payload
Rocket body
Debris
Shape & HBRUnknown
Radar Cross Section8.300 m², Large (>1 m²)

Expand to show TLE details & history

TLE from 12 hours ago
0 CZ-4C DEB
1 40113U 14047E   24361.28890462  .00000424  00000-0  61420-3 0  9996
2 40113  63.3853 344.7302 0345787  12.9913 347.9744 13.44503011509634
Epoch: 2024-12-26T06:56Z
Definitive object data (Epoch: 2024-12-26T06:56:01.359Z)
Latitude-0.00007°
Longitude145.45406°
Altitude842.044 km
Speed7.557 km/s
True Right ascension22h 58m 55s
True Declination0° 00' 00"
Sunlit
Object was in daylight at TLE epoch
Visualization TLE readout
Latitude-63.23004°
Longitude45.37012°
Altitude1,182.804 km
Speed7.229 km/s
Apparent Right ascension09h 07m 29s
Apparent Declination-76° 20' 46"
Sunlit
Object is in daylight
Visualization observer readout
Local Sidereal Time18:21:13
Azimuth193.919° SSW
Elevation-49.375°
Doppler factor1
Orbital elements
Apogee altitude1,349.668 km
Perigee altitude833.095 km
Semi-major axis7,469.519 km
Eccentricity0.0345787
Inclination63.3853°
RAAN344.7302°
Arg. of periapsis12.9913°
True anomaly347.11249°
Mean anomaly347.9744°
Eccentric anomaly347.54718°
Mean motion3.36205 °/min
BSTAR0.0006142
Orbital period107.08 mins
Loading maneuver chart data...
Loading historical data...
Loading historical data...
Loading historical data...
Loading historical data...
Loading historical data...
Loading historical data...
Loading historical data...

CZ-4C DEB Visibility forecast

Observer location: undefined°, undefined

Span
Click to sort rows by Start time (UTC) header in descending order
Start Az.
Max El. time (UTC)
Max El. Az.
Max El.
End time (UTC)
End Az.
10 mins2024-12-27 00:54:37.897Z207.76° SW2024-12-27 00:59:37.897Z111.374° ESE44.635°2024-12-27 01:04:37.897Z36.313° NE
6 mins2024-12-27 02:48:37.897Z294.851° NW2024-12-27 02:50:37.897Z320.534° NNW19.551°2024-12-27 02:54:37.897Z6.23° NNE
11 mins2024-12-27 08:26:37.897Z347.389° N2024-12-27 08:31:37.897Z49.44° ENE31.461°2024-12-27 08:37:37.897Z108.28° ESE
13 mins2024-12-27 10:16:37.897Z313.743° NW2024-12-27 10:22:37.897Z234.445° WSW39.132°2024-12-27 10:29:37.897Z169.149° S
|